This demonstration page uses our WeatherBlox Daily Observations layout. Learn more.

Left ArrowRight Arrow

53.62937, 11.41316

Hourly Observations for May 11, 2016

Temp ( °F °C ) Dew Point ( °F °C ) Humidity (%) Winds ( mph kmh ) Pressure ( in mb ) Visibility ( mi km ) Precip ( " mm )
6:20 am 06:20 Mostly Sunny 54 12 46 8 77 77 E 8 13 29.88 1012 7 11 N/A
6:50 am 06:50 Mostly Sunny 55 13 48 9 77 77 E 8 13 29.88 1012 7 11 N/A
7:20 am 07:20 Mostly Sunny 57 14 48 9 72 72 E 10 17 29.88 1012 7 11 N/A
7:50 am 07:50 Mostly Sunny 59 15 48 9 68 68 E 10 17 29.88 1012 7 11 N/A
8:20 am 08:20 Mostly Sunny 61 16 48 9 63 63 E 10 17 29.88 1012 7 11 N/A
8:50 am 08:50 Mostly Sunny 63 17 50 10 64 64 E 10 17 29.88 1012 7 11 N/A
9:20 am 09:20 Mostly Sunny 66 19 50 10 56 56 E 9 15 29.88 1012 7 11 N/A
9:50 am 09:50 Mostly Sunny 68 20 50 10 53 53 E 10 17 29.88 1012 7 11 N/A
10:20 am 10:20 Mostly Sunny 70 21 50 10 50 50 E 13 20 29.88 1012 7 11 N/A
10:50 am 10:50 Mostly Sunny 70 21 50 10 50 50 E 15 24 29.88 1012 7 11 N/A
11:20 am 11:20 Mostly Sunny 72 22 50 10 47 47 E 16 26 29.88 1012 7 11 N/A
11:50 am 11:50 Mostly Sunny 72 22 50 10 47 47 ESE 15 24 29.88 1012 7 11 N/A
12:20 pm 12:20 Mostly Sunny 73 23 50 10 44 44 SE 13 20 29.85 1011 7 11 N/A
12:50 pm 12:50 Mostly Sunny 73 23 50 10 44 44 E 13 20 29.85 1011 7 11 N/A
1:20 pm 13:20 Mostly Sunny 73 23 46 8 38 38 ESE 14 22 29.85 1011 7 11 N/A
1:50 pm 13:50 Mostly Sunny 75 24 43 6 31 31 ESE 15 24 29.83 1010 7 11 N/A
2:20 pm 14:20 Mostly Sunny 75 24 45 7 34 34 E 16 26 29.83 1010 7 11 N/A
2:50 pm 14:50 Mostly Sunny 73 23 43 6 33 33 E 15 24 29.83 1010 7 11 N/A
3:20 pm 15:20 Mostly Sunny 75 24 45 7 34 34 E 14 22 29.83 1010 7 11 N/A
3:50 pm 15:50 Mostly Sunny 75 24 46 8 36 36 E 16 26 29.83 1010 7 11 N/A
4:20 pm 16:20 Mostly Sunny 75 24 46 8 36 36 ENE 18 30 29.83 1010 7 11 N/A
4:50 pm 16:50 Mostly Sunny 77 25 48 9 36 36 E 15 24 29.80 1009 7 11 N/A
5:20 pm 17:20 Mostly Sunny 75 24 46 8 36 36 ENE 14 22 29.80 1009 7 11 N/A
5:50 pm 17:50 Mostly Sunny 73 23 46 8 38 38 ENE 20 31 29.80 1009 7 11 N/A
6:20 pm 18:20 Mostly Sunny 75 24 46 8 36 36 ENE 15 24 29.80 1009 7 11 N/A
6:50 pm 18:50 Mostly Sunny 73 23 46 8 38 38 ENE 18 30 29.80 1009 7 11 N/A

Powered by AerisWeather